iso_date,epoch_date,Year,Hour,Min,DOY,POS_DOY,Lat,Lon,BP,Ts,Ta,has_bp,has_ts,has_ta,BuoyID,Buoy_Type,Buoy_Owner,Logistics,Hemisphere
2015-09-10T18:01:26Z,1441908086,2015,18,2,253.751,253.751,89.8636,-89.859,987.5,0.6,-5.2,yes,yes,yes,300234062782480,ICEB,AWI-USIABP,unknown,North
2015-09-10T19:00:28Z,1441911629,2015,19,1,253.792,253.792,89.8702,-89.6554,987.1,0.6,-5.2,yes,yes,yes,300234062782480,ICEB,AWI-USIABP,unknown,North
2015-09-10T20:00:57Z,1441915258,2015,20,1,253.834,253.834,89.8764,-89.5904,986.8,0.6,-5.2,yes,yes,yes,300234062782480,ICEB,AWI-USIABP,unknown,North
2015-09-10T21:01:26Z,1441918886,2015,21,1,253.876,253.876,89.882,-89.6798,986.7,0.6,-4.9,yes,yes,yes,300234062782480,ICEB,AWI-USIABP,unknown,North
2015-09-10T22:01:55Z,1441922515,2015,22,2,253.918,253.918,89.8866,-89.9502,986.4,0.6,-5.0,yes,yes,yes,300234062782480,ICEB,AWI-USIABP,unknown,North
2015-09-10T23:00:57Z,1441926058,2015,23,1,253.959,253.959,89.8902,-90.3478,986.3,0.6,-5.1,yes,yes,yes,300234062782480,ICEB,AWI-USIABP,unknown,North
2015-09-11T00:01:26Z,1441929686,2015,0,1,254.001,254.001,89.8932,-90.7254,986.3,0.6,-5.0,yes,yes,yes,300234062782480,ICEB,AWI-USIABP,unknown,North
2015-09-11T01:00:28Z,1441933229,2015,1,1,254.042,254.042,89.8946,-91.242,986.2,0.6,-5.3,yes,yes,yes,300234062782480,ICEB,AWI-USIABP,unknown,North
2015-09-11T02:02:24Z,1441936944,2015,2,2,254.085,254.085,89.8946,-92.1124,986.3,0.6,-5.4,yes,yes,yes,300234062782480,ICEB,AWI-USIABP,unknown,North
2015-09-11T03:01:26Z,1441940486,2015,3,1,254.126,254.126,89.894,-93.2178,986.5,0.6,-5.7,yes,yes,yes,300234062782480,ICEB,AWI-USIABP,unknown,North
2015-09-11T04:00:28Z,1441944029,2015,4,1,254.167,254.167,89.8926,-94.4312,986.8,0.6,-5.8,yes,yes,yes,300234062782480,ICEB,AWI-USIABP,unknown,North
2015-09-11T05:02:24Z,1441947744,2015,5,2,254.21,254.21,89.8906,-95.6786,987.0,0.6,-8.4,yes,yes,yes,300234062782480,ICEB,AWI-USIABP,unknown,North
2015-09-11T06:01:26Z,1441951286,2015,6,1,254.251,254.251,89.8886,-96.7346,987.4,0.6,-9.9,yes,yes,yes,300234062782480,ICEB,AWI-USIABP,unknown,North
2015-09-11T07:01:55Z,1441954915,2015,7,2,254.293,254.293,89.886,-97.5884,988.0,0.6,-9.3,yes,yes,yes,300234062782480,ICEB,AWI-USIABP,unknown,North
2015-09-11T08:00:57Z,1441958458,2015,8,1,254.334,254.334,89.8832,-98.2948,988.3,0.6,-10.7,yes,yes,yes,300234062782480,ICEB,AWI-USIABP,unknown,North
2015-09-11T09:01:26Z,1441962086,2015,9,1,254.376,254.376,89.8802,-98.7634,989.0,0.6,-11.7,yes,yes,yes,300234062782480,ICEB,AWI-USIABP,unknown,North
2015-09-11T10:01:55Z,1441965715,2015,10,2,254.418,254.418,89.8762,-99.1124,989.9,0.6,-10.0,yes,yes,yes,300234062782480,ICEB,AWI-USIABP,unknown,North
2015-09-11T11:00:57Z,1441969258,2015,11,1,254.459,254.459,89.8718,-99.4272,990.3,0.6,-9.4,yes,yes,yes,300234062782480,ICEB,AWI-USIABP,unknown,North
2015-09-11T12:01:26Z,1441972886,2015,12,1,254.501,254.501,89.8672,-99.6132,990.9,0.6,-9.4,yes,yes,yes,300234062782480,ICEB,AWI-USIABP,unknown,North
2015-09-11T13:00:28Z,1441976429,2015,13,1,254.542,254.542,89.8622,-99.7122,991.3,0.6,-9.7,yes,yes,yes,300234062782480,ICEB,AWI-USIABP,unknown,North
2015-09-11T14:02:24Z,1441980144,2015,14,2,254.585,254.585,89.8572,-99.8422,991.7,0.6,-9.9,yes,yes,yes,300234062782480,ICEB,AWI-USIABP,unknown,North
2015-09-11T15:01:26Z,1441983686,2015,15,1,254.626,254.626,89.8524,-100.0228,992.1,0.6,-9.8,yes,yes,yes,300234062782480,ICEB,AWI-USIABP,unknown,North
2015-09-11T16:00:28Z,1441987229,2015,16,1,254.667,254.667,89.8482,-100.2318,992.6,0.6,-10.3,yes,yes,yes,300234062782480,ICEB,AWI-USIABP,unknown,North
2015-09-11T17:00:57Z,1441990858,2015,17,1,254.709,254.709,89.8442,-100.3362,993.1,0.6,-10.5,yes,yes,yes,300234062782480,ICEB,AWI-USIABP,unknown,North
2015-09-11T18:01:26Z,1441994486,2015,18,2,254.751,254.751,89.8406,-100.2996,993.5,0.6,-10.4,yes,yes,yes,300234062782480,ICEB,AWI-USIABP,unknown,North
2015-09-11T19:00:28Z,1441998029,2015,19,1,254.792,254.792,89.8376,-100.1772,994.1,0.6,-10.1,yes,yes,yes,300234062782480,ICEB,AWI-USIABP,unknown,North
2015-09-11T20:00:57Z,1442001658,2015,20,1,254.834,254.834,89.8348,-99.919,994.8,0.6,-10.2,yes,yes,yes,300234062782480,ICEB,AWI-USIABP,unknown,North
2015-09-11T21:01:26Z,1442005286,2015,21,1,254.876,254.876,89.8322,-99.5166,995.3,0.6,-10.2,yes,yes,yes,300234062782480,ICEB,AWI-USIABP,unknown,North
2015-09-11T22:00:28Z,1442008829,2015,22,1,254.917,254.917,89.8296,-98.983,996.0,0.6,-10.3,yes,yes,yes,300234062782480,ICEB,AWI-USIABP,unknown,North
2015-09-11T23:00:57Z,1442012458,2015,23,1,254.959,254.959,89.8268,-98.3986,996.7,0.6,-10.6,yes,yes,yes,300234062782480,ICEB,AWI-USIABP,unknown,North
2015-09-12T00:01:26Z,1442016086,2015,0,1,255.001,255.001,89.824,-97.8386,997.2,0.6,-10.9,yes,yes,yes,300234062782480,ICEB,AWI-USIABP,unknown,North
2015-09-12T01:00:28Z,1442019629,2015,1,1,255.042,255.042,89.8212,-97.3556,997.9,0.6,-12.2,yes,yes,yes,300234062782480,ICEB,AWI-USIABP,unknown,North
2015-09-12T02:00:57Z,1442023258,2015,2,1,255.084,255.084,89.8186,-96.9596,998.5,0.6,-13.8,yes,yes,yes,300234062782480,ICEB,AWI-USIABP,unknown,North
2015-09-12T03:01:26Z,1442026886,2015,3,1,255.126,255.126,89.8162,-96.692,999.0,0.6,-14.3,yes,yes,yes,300234062782480,ICEB,AWI-USIABP,unknown,North
2015-09-12T04:00:28Z,1442030429,2015,4,1,255.167,255.167,89.8142,-96.531,999.5,0.5,-14.7,yes,yes,yes,300234062782480,ICEB,AWI-USIABP,unknown,North
2015-09-12T05:00:57Z,1442034058,2015,5,1,255.209,255.209,89.8124,-96.434,1000.1,0.5,-15.1,yes,yes,yes,300234062782480,ICEB,AWI-USIABP,unknown,North
2015-09-12T06:01:26Z,1442037686,2015,6,1,255.251,255.251,89.811,-96.3456,1000.6,0.5,-15.4,yes,yes,yes,300234062782480,ICEB,AWI-USIABP,unknown,North
2015-09-12T07:00:28Z,1442041229,2015,7,1,255.292,255.292,89.8098,-96.1928,1001.3,0.5,-15.2,yes,yes,yes,300234062782480,ICEB,AWI-USIABP,unknown,North
2015-09-12T08:00:57Z,1442044858,2015,8,1,255.334,255.334,89.8086,-95.936,1002.0,0.5,-12.4,yes,yes,yes,300234062782480,ICEB,AWI-USIABP,unknown,North
2015-09-12T09:01:26Z,1442048486,2015,9,1,255.376,255.376,89.8078,-95.587,1002.6,0.5,-9.6,yes,yes,yes,300234062782480,ICEB,AWI-USIABP,unknown,North
2015-09-12T10:00:28Z,1442052029,2015,10,1,255.417,255.417,89.8072,-95.1686,1002.9,0.5,-12.0,yes,yes,yes,300234062782480,ICEB,AWI-USIABP,unknown,North
2015-09-12T11:00:57Z,1442055658,2015,11,1,255.459,255.459,89.8064,-94.7048,1003.3,0.5,-12.6,yes,yes,yes,300234062782480,ICEB,AWI-USIABP,unknown,North
2015-09-12T12:01:26Z,1442059286,2015,12,1,255.501,255.501,89.8058,-94.2354,1003.7,0.5,-13.8,yes,yes,yes,300234062782480,ICEB,AWI-USIABP,unknown,North
2015-09-12T13:00:28Z,1442062829,2015,13,1,255.542,255.542,89.8048,-93.8218,1003.9,0.5,-15.0,yes,yes,yes,300234062782480,ICEB,AWI-USIABP,unknown,North
2015-09-12T14:02:24Z,1442066544,2015,14,2,255.585,255.585,89.8036,-93.5188,1004.6,0.5,-15.1,yes,yes,yes,300234062782480,ICEB,AWI-USIABP,unknown,North
2015-09-12T15:01:26Z,1442070086,2015,15,1,255.626,255.626,89.8024,-93.3484,1004.9,0.5,-15.8,yes,yes,yes,300234062782480,ICEB,AWI-USIABP,unknown,North
2015-09-12T16:00:28Z,1442073629,2015,16,1,255.667,255.667,89.801,-93.315,1005.5,0.5,-14.5,yes,yes,yes,300234062782480,ICEB,AWI-USIABP,unknown,North
2015-09-12T17:00:57Z,1442077258,2015,17,1,255.709,255.709,89.7998,-93.3872,1005.9,0.5,-14.0,yes,yes,yes,300234062782480,ICEB,AWI-USIABP,unknown,North
2015-09-12T18:01:26Z,1442080886,2015,18,2,255.751,255.751,89.7988,-93.512,1006.3,0.5,-12.7,yes,yes,yes,300234062782480,ICEB,AWI-USIABP,unknown,North
2015-09-12T19:00:28Z,1442084429,2015,19,1,255.792,255.792,89.7982,-93.6486,1006.7,0.5,-12.3,yes,yes,yes,300234062782480,ICEB,AWI-USIABP,unknown,North
2015-09-12T20:00:57Z,1442088058,2015,20,1,255.834,255.834,89.7978,-93.7586,1007.0,0.5,-12.1,yes,yes,yes,300234062782480,ICEB,AWI-USIABP,unknown,North
2015-09-12T21:01:26Z,1442091686,2015,21,1,255.876,255.876,89.7974,-93.7892,1007.5,0.5,-11.5,yes,yes,yes,300234062782480,ICEB,AWI-USIABP,unknown,North
2015-09-12T22:00:28Z,1442095229,2015,22,1,255.917,255.917,89.7972,-93.6916,1007.8,0.5,-12.2,yes,yes,yes,300234062782480,ICEB,AWI-USIABP,unknown,North
2015-09-12T23:00:57Z,1442098858,2015,23,1,255.959,255.959,89.797,-93.4866,1008.1,0.5,-11.4,yes,yes,yes,300234062782480,ICEB,AWI-USIABP,unknown,North
2015-09-13T00:01:26Z,1442102486,2015,0,1,256.001,256.001,89.7968,-93.2002,1008.3,0.5,-11.4,yes,yes,yes,300234062782480,ICEB,AWI-USIABP,unknown,North
2015-09-13T01:00:28Z,1442106029,2015,1,1,256.042,256.042,89.796,-92.9016,1008.5,0.5,-12.2,yes,yes,yes,300234062782480,ICEB,AWI-USIABP,unknown,North
2015-09-13T02:00:57Z,1442109658,2015,2,1,256.084,256.084,89.795,-92.7136,1008.9,0.5,-13.0,yes,yes,yes,300234062782480,ICEB,AWI-USIABP,unknown,North
2015-09-13T03:01:26Z,1442113286,2015,3,1,256.126,256.126,89.7934,-92.726,1009.3,0.5,-8.1,yes,yes,yes,300234062782480,ICEB,AWI-USIABP,unknown,North
2015-09-13T04:00:28Z,1442116829,2015,4,1,256.167,256.167,89.7918,-92.9258,1009.3,0.5,-7.5,yes,yes,yes,300234062782480,ICEB,AWI-USIABP,unknown,North
2015-09-13T05:00:57Z,1442120458,2015,5,1,256.209,256.209,89.7902,-93.2558,1009.5,0.5,-7.0,yes,yes,yes,300234062782480,ICEB,AWI-USIABP,unknown,North
2015-09-13T06:01:26Z,1442124086,2015,6,1,256.251,256.251,89.7888,-93.6148,1009.7,0.5,-6.6,yes,yes,yes,300234062782480,ICEB,AWI-USIABP,unknown,North
2015-09-13T07:00:28Z,1442127629,2015,7,1,256.292,256.292,89.7882,-93.98,1010.1,0.5,-5.9,yes,yes,yes,300234062782480,ICEB,AWI-USIABP,unknown,North
2015-09-13T08:00:57Z,1442131258,2015,8,1,256.334,256.334,89.7878,-94.3174,1010.4,0.5,-5.5,yes,yes,yes,300234062782480,ICEB,AWI-USIABP,unknown,North
2015-09-13T09:01:26Z,1442134886,2015,9,1,256.376,256.376,89.788,-94.5376,1010.7,0.5,-5.6,yes,yes,yes,300234062782480,ICEB,AWI-USIABP,unknown,North
2015-09-13T10:00:28Z,1442138429,2015,10,1,256.417,256.417,89.7884,-94.5646,1010.8,0.5,-6.8,yes,yes,yes,300234062782480,ICEB,AWI-USIABP,unknown,North
2015-09-13T11:00:57Z,1442142058,2015,11,1,256.459,256.459,89.7886,-94.3952,1011.4,0.5,-7.4,yes,yes,yes,300234062782480,ICEB,AWI-USIABP,unknown,North
2015-09-13T12:01:26Z,1442145686,2015,12,1,256.501,256.501,89.7882,-94.1336,1012.0,0.5,-6.1,yes,yes,yes,300234062782480,ICEB,AWI-USIABP,unknown,North
2015-09-13T13:00:28Z,1442149229,2015,13,1,256.542,256.542,89.7876,-93.9006,1012.4,0.5,-5.5,yes,yes,yes,300234062782480,ICEB,AWI-USIABP,unknown,North
2015-09-13T14:02:24Z,1442152944,2015,14,2,256.585,256.585,89.7866,-93.7558,1012.6,0.5,-5.7,yes,yes,yes,300234062782480,ICEB,AWI-USIABP,unknown,North
2015-09-13T15:01:26Z,1442156486,2015,15,1,256.626,256.626,89.7854,-93.7198,1012.7,0.5,-7.2,yes,yes,yes,300234062782480,ICEB,AWI-USIABP,unknown,North
2015-09-13T16:00:28Z,1442160029,2015,16,1,256.667,256.667,89.784,-93.7782,1013.1,0.5,-7.6,yes,yes,yes,300234062782480,ICEB,AWI-USIABP,unknown,North
2015-09-13T17:00:57Z,1442163658,2015,17,1,256.709,256.709,89.7828,-93.9158,1013.4,0.5,-6.9,yes,yes,yes,300234062782480,ICEB,AWI-USIABP,unknown,North
2015-09-13T18:01:26Z,1442167286,2015,18,2,256.751,256.751,89.7818,-94.1008,1013.6,0.5,-5.0,yes,yes,yes,300234062782480,ICEB,AWI-USIABP,unknown,North
2015-09-13T19:00:28Z,1442170829,2015,19,1,256.792,256.792,89.781,-94.3284,1013.8,0.5,-4.7,yes,yes,yes,300234062782480,ICEB,AWI-USIABP,unknown,North
2015-09-13T20:00:57Z,1442174458,2015,20,1,256.834,256.834,89.7806,-94.5022,1014.0,0.5,-5.6,yes,yes,yes,300234062782480,ICEB,AWI-USIABP,unknown,North
2015-09-13T21:01:26Z,1442178086,2015,21,1,256.876,256.876,89.7806,-94.5988,1014.2,0.5,-7.8,yes,yes,yes,300234062782480,ICEB,AWI-USIABP,unknown,North
2015-09-13T22:01:55Z,1442181715,2015,22,2,256.918,256.918,89.7804,-94.5748,1014.6,0.5,-7.5,yes,yes,yes,300234062782480,ICEB,AWI-USIABP,unknown,North
2015-09-13T23:00:57Z,1442185258,2015,23,1,256.959,256.959,89.78,-94.467,1014.6,0.5,-6.3,yes,yes,yes,300234062782480,ICEB,AWI-USIABP,unknown,North
2015-09-14T00:01:26Z,1442188886,2015,0,1,257.001,257.001,89.779,-94.2984,1014.6,0.5,-5.8,yes,yes,yes,300234062782480,ICEB,AWI-USIABP,unknown,North
2015-09-14T01:00:28Z,1442192429,2015,1,1,257.042,257.042,89.7776,-94.232,1014.5,0.5,-5.3,yes,yes,yes,300234062782480,ICEB,AWI-USIABP,unknown,North
2015-09-14T02:02:24Z,1442196144,2015,2,2,257.085,257.085,89.7754,-94.432,1014.4,0.5,-4.8,yes,yes,yes,300234062782480,ICEB,AWI-USIABP,unknown,North
2015-09-14T03:01:26Z,1442199686,2015,3,1,257.126,257.126,89.7724,-94.9742,1014.0,0.5,-4.5,yes,yes,yes,300234062782480,ICEB,AWI-USIABP,unknown,North
2015-09-14T04:00:28Z,1442203229,2015,4,1,257.167,257.167,89.7688,-95.7152,1013.7,0.5,-5.6,yes,yes,yes,300234062782480,ICEB,AWI-USIABP,unknown,North
2015-09-14T05:00:57Z,1442206858,2015,5,1,257.209,257.209,89.7654,-96.5226,1013.6,0.5,-7.2,yes,yes,yes,300234062782480,ICEB,AWI-USIABP,unknown,North
2015-09-14T06:01:26Z,1442210486,2015,6,2,257.251,257.251,89.7622,-97.416,1013.4,0.5,-6.3,yes,yes,yes,300234062782480,ICEB,AWI-USIABP,unknown,North
2015-09-14T07:00:28Z,1442214029,2015,7,1,257.292,257.292,89.7594,-98.3602,1013.3,0.5,-6.2,yes,yes,yes,300234062782480,ICEB,AWI-USIABP,unknown,North
2015-09-14T08:00:57Z,1442217658,2015,8,1,257.334,257.334,89.7562,-99.282,1013.0,0.5,-5.7,yes,yes,yes,300234062782480,ICEB,AWI-USIABP,unknown,North
2015-09-14T09:01:26Z,1442221286,2015,9,2,257.376,257.376,89.7532,-100.068,1012.8,0.5,-4.9,yes,yes,yes,300234062782480,ICEB,AWI-USIABP,unknown,North
2015-09-14T10:01:55Z,1442224915,2015,10,2,257.418,257.418,89.7504,-100.6792,1012.4,0.5,-5.4,yes,yes,yes,300234062782480,ICEB,AWI-USIABP,unknown,North
2015-09-14T11:00:57Z,1442228458,2015,11,1,257.459,257.459,89.748,-101.1522,1012.4,0.5,-4.7,yes,yes,yes,300234062782480,ICEB,AWI-USIABP,unknown,North
2015-09-14T12:01:26Z,1442232086,2015,12,1,257.501,257.501,89.7454,-101.5922,1011.8,0.5,-5.2,yes,yes,yes,300234062782480,ICEB,AWI-USIABP,unknown,North
2015-09-14T13:00:28Z,1442235629,2015,13,1,257.542,257.542,89.7428,-102.0672,1011.5,0.5,-5.5,yes,yes,yes,300234062782480,ICEB,AWI-USIABP,unknown,North
2015-09-14T14:02:24Z,1442239344,2015,14,2,257.585,257.585,89.7402,-102.632,1011.3,0.5,-6.6,yes,yes,yes,300234062782480,ICEB,AWI-USIABP,unknown,North
2015-09-14T15:01:26Z,1442242886,2015,15,1,257.626,257.626,89.7378,-103.2916,1011.1,0.5,-6.5,yes,yes,yes,300234062782480,ICEB,AWI-USIABP,unknown,North
2015-09-14T16:00:28Z,1442246429,2015,16,1,257.667,257.667,89.7354,-104.0174,1011.0,0.5,-7.3,yes,yes,yes,300234062782480,ICEB,AWI-USIABP,unknown,North
2015-09-14T17:00:57Z,1442250058,2015,17,1,257.709,257.709,89.734,-104.741,1010.9,0.5,-7.1,yes,yes,yes,300234062782480,ICEB,AWI-USIABP,unknown,North
2015-09-14T18:01:26Z,1442253686,2015,18,2,257.751,257.751,89.7332,-105.3564,1010.6,0.5,-6.9,yes,yes,yes,300234062782480,ICEB,AWI-USIABP,unknown,North
2015-09-14T19:00:28Z,1442257229,2015,19,1,257.792,257.792,89.7328,-105.8226,1010.3,0.5,-6.4,yes,yes,yes,300234062782480,ICEB,AWI-USIABP,unknown,North
2015-09-14T20:00:57Z,1442260858,2015,20,1,257.834,257.834,89.7326,-106.0976,1010.0,0.5,-6.2,yes,yes,yes,300234062782480,ICEB,AWI-USIABP,unknown,North
2015-09-14T21:01:26Z,1442264486,2015,21,1,257.876,257.876,89.7324,-106.1676,1009.7,0.5,-6.1,yes,yes,yes,300234062782480,ICEB,AWI-USIABP,unknown,North
2015-09-14T22:01:55Z,1442268115,2015,22,2,257.918,257.918,89.7318,-106.0364,1009.3,0.5,-6.2,yes,yes,yes,300234062782480,ICEB,AWI-USIABP,unknown,North
2015-09-14T23:00:57Z,1442271658,2015,23,1,257.959,257.959,89.7304,-105.8008,1009.0,0.5,-6.1,yes,yes,yes,300234062782480,ICEB,AWI-USIABP,unknown,North
2015-09-15T00:01:26Z,1442275286,2015,0,1,258.001,258.001,89.7288,-105.5646,1008.6,0.5,-5.8,yes,yes,yes,300234062782480,ICEB,AWI-USIABP,unknown,North
2015-09-15T01:00:28Z,1442278829,2015,1,1,258.042,258.042,89.7268,-105.4116,1008.2,0.5,-6.1,yes,yes,yes,300234062782480,ICEB,AWI-USIABP,unknown,North
2015-09-15T02:02:24Z,1442282544,2015,2,2,258.085,258.085,89.7244,-105.3194,1007.7,0.5,-7.9,yes,yes,yes,300234062782480,ICEB,AWI-USIABP,unknown,North
2015-09-15T03:01:26Z,1442286086,2015,3,1,258.126,258.126,89.7222,-105.2898,1007.4,0.5,-9.7,yes,yes,yes,300234062782480,ICEB,AWI-USIABP,unknown,North
2015-09-15T04:00:28Z,1442289629,2015,4,1,258.167,258.167,89.7202,-105.3192,1007.2,0.5,-8.9,yes,yes,yes,300234062782480,ICEB,AWI-USIABP,unknown,North
2015-09-15T05:00:57Z,1442293258,2015,5,1,258.209,258.209,89.7186,-105.364,1006.8,0.5,-7.6,yes,yes,yes,300234062782480,ICEB,AWI-USIABP,unknown,North
2015-09-15T06:01:26Z,1442296886,2015,6,2,258.251,258.251,89.718,-105.4048,1006.4,0.5,-6.9,yes,yes,yes,300234062782480,ICEB,AWI-USIABP,unknown,North
2015-09-15T07:00:28Z,1442300429,2015,7,1,258.292,258.292,89.718,-105.39,1006.1,0.5,-6.8,yes,yes,yes,300234062782480,ICEB,AWI-USIABP,unknown,North
2015-09-15T08:00:57Z,1442304058,2015,8,1,258.334,258.334,89.7186,-105.286,1005.9,0.5,-6.6,yes,yes,yes,300234062782480,ICEB,AWI-USIABP,unknown,North
2015-09-15T09:01:26Z,1442307686,2015,9,1,258.376,258.376,89.72,-105.0792,1005.6,0.5,-6.3,yes,yes,yes,300234062782480,ICEB,AWI-USIABP,unknown,North
2015-09-15T10:01:55Z,1442311315,2015,10,2,258.418,258.418,89.7216,-104.82,1005.5,0.5,-6.6,yes,yes,yes,300234062782480,ICEB,AWI-USIABP,unknown,North
2015-09-15T11:00:57Z,1442314858,2015,11,1,258.459,258.459,89.7232,-104.551,1005.3,0.5,-8.0,yes,yes,yes,300234062782480,ICEB,AWI-USIABP,unknown,North
2015-09-15T12:01:26Z,1442318486,2015,12,1,258.501,258.501,89.7242,-104.2702,1004.9,0.5,-11.2,yes,yes,yes,300234062782480,ICEB,AWI-USIABP,unknown,North
2015-09-15T13:00:28Z,1442322029,2015,13,1,258.542,258.542,89.7242,-104.0338,1004.9,0.5,-13.6,yes,yes,yes,300234062782480,ICEB,AWI-USIABP,unknown,North
2015-09-15T14:02:24Z,1442325744,2015,14,2,258.585,258.585,89.7238,-103.881,1004.8,0.5,-14.1,yes,yes,yes,300234062782480,ICEB,AWI-USIABP,unknown,North
2015-09-15T15:01:26Z,1442329286,2015,15,1,258.626,258.626,89.7228,-103.8366,1004.5,0.5,-13.5,yes,yes,yes,300234062782480,ICEB,AWI-USIABP,unknown,North
2015-09-15T16:00:28Z,1442332829,2015,16,1,258.667,258.667,89.722,-103.8914,1004.3,0.5,-13.4,yes,yes,yes,300234062782480,ICEB,AWI-USIABP,unknown,North
2015-09-15T17:00:57Z,1442336458,2015,17,1,258.709,258.709,89.7214,-104.0242,1004.6,0.5,-12.5,yes,yes,yes,300234062782480,ICEB,AWI-USIABP,unknown,North
2015-09-15T18:01:26Z,1442340086,2015,18,2,258.751,258.751,89.7212,-104.1334,1004.4,0.5,-12.0,yes,yes,yes,300234062782480,ICEB,AWI-USIABP,unknown,North
2015-09-15T19:00:28Z,1442343629,2015,19,1,258.792,258.792,89.7216,-104.1566,1004.1,0.5,-14.9,yes,yes,yes,300234062782480,ICEB,AWI-USIABP,unknown,North
2015-09-15T20:00:57Z,1442347258,2015,20,1,258.834,258.834,89.7224,-104.0378,1004.2,0.5,-16.1,yes,yes,yes,300234062782480,ICEB,AWI-USIABP,unknown,North
2015-09-15T21:01:26Z,1442350886,2015,21,1,258.876,258.876,89.7238,-103.794,1004.6,0.5,-16.2,yes,yes,yes,300234062782480,ICEB,AWI-USIABP,unknown,North
2015-09-15T22:01:55Z,1442354515,2015,22,2,258.918,258.918,89.7252,-103.4832,1005.0,0.4,-12.2,yes,yes,yes,300234062782480,ICEB,AWI-USIABP,unknown,North
2015-09-15T23:00:57Z,1442358058,2015,23,1,258.959,258.959,89.7268,-103.15,1005.2,0.4,-10.7,yes,yes,yes,300234062782480,ICEB,AWI-USIABP,unknown,North
2015-09-16T00:01:26Z,1442361686,2015,0,2,259.001,259.001,89.728,-102.8006,1005.2,0.4,-10.2,yes,yes,yes,300234062782480,ICEB,AWI-USIABP,unknown,North
2015-09-16T01:01:55Z,1442365315,2015,1,2,259.043,259.043,89.7292,-102.4856,1005.2,0.4,-10.9,yes,yes,yes,300234062782480,ICEB,AWI-USIABP,unknown,North
2015-09-16T02:02:24Z,1442368944,2015,2,2,259.085,259.085,89.7298,-102.197,1005.4,0.4,-12.4,yes,yes,yes,300234062782480,ICEB,AWI-USIABP,unknown,North
2015-09-16T03:01:26Z,1442372486,2015,3,2,259.126,259.126,89.7302,-101.9962,1005.7,0.4,-14.1,yes,yes,yes,300234062782480,ICEB,AWI-USIABP,unknown,North
2015-09-16T04:00:28Z,1442376029,2015,4,1,259.167,259.167,89.7306,-101.948,1006.4,0.4,-11.6,yes,yes,yes,300234062782480,ICEB,AWI-USIABP,unknown,North
2015-09-16T05:00:57Z,1442379658,2015,5,1,259.209,259.209,89.7314,-102.0132,1006.6,0.4,-11.7,yes,yes,yes,300234062782480,ICEB,AWI-USIABP,unknown,North
2015-09-16T06:01:26Z,1442383286,2015,6,1,259.251,259.251,89.7322,-102.1314,1006.8,0.4,-12.3,yes,yes,yes,300234062782480,ICEB,AWI-USIABP,unknown,North
2015-09-16T07:00:28Z,1442386829,2015,7,1,259.292,259.292,89.7332,-102.1874,1006.7,0.4,-14.5,yes,yes,yes,300234062782480,ICEB,AWI-USIABP,unknown,North
2015-09-16T08:00:57Z,1442390458,2015,8,1,259.334,259.334,89.734,-102.1108,1006.7,0.4,-17.0,yes,yes,yes,300234062782480,ICEB,AWI-USIABP,unknown,North
2015-09-16T09:01:26Z,1442394086,2015,9,1,259.376,259.376,89.7344,-101.9658,1007.1,0.4,-17.7,yes,yes,yes,300234062782480,ICEB,AWI-USIABP,unknown,North
2015-09-16T10:01:55Z,1442397715,2015,10,2,259.418,259.418,89.7348,-101.794,1007.6,0.4,-18.4,yes,yes,yes,300234062782480,ICEB,AWI-USIABP,unknown,North
2015-09-16T11:00:57Z,1442401258,2015,11,1,259.459,259.459,89.735,-101.5724,1007.4,0.4,-19.3,yes,yes,yes,300234062782480,ICEB,AWI-USIABP,unknown,North
2015-09-16T12:01:26Z,1442404886,2015,12,1,259.501,259.501,89.7346,-101.3516,1007.5,0.4,-19.1,yes,yes,yes,300234062782480,ICEB,AWI-USIABP,unknown,North
2015-09-16T13:00:28Z,1442408429,2015,13,1,259.542,259.542,89.7336,-101.1848,1007.5,0.4,-16.2,yes,yes,yes,300234062782480,ICEB,AWI-USIABP,unknown,North
2015-09-16T14:00:57Z,1442412058,2015,14,1,259.584,259.584,89.7318,-101.1252,1007.2,0.4,-17.1,yes,yes,yes,300234062782480,ICEB,AWI-USIABP,unknown,North
2015-09-16T15:01:26Z,1442415686,2015,15,1,259.626,259.626,89.73,-101.194,1007.2,0.4,-15.1,yes,yes,yes,300234062782480,ICEB,AWI-USIABP,unknown,North
2015-09-16T16:00:28Z,1442419229,2015,16,1,259.667,259.667,89.7278,-101.4298,1007.0,0.4,-12.4,yes,yes,yes,300234062782480,ICEB,AWI-USIABP,unknown,North
2015-09-16T17:00:57Z,1442422858,2015,17,1,259.709,259.709,89.7254,-101.8372,1006.8,0.4,-9.6,yes,yes,yes,300234062782480,ICEB,AWI-USIABP,unknown,North
2015-09-16T18:01:26Z,1442426486,2015,18,1,259.751,259.751,89.723,-102.3782,1006.3,0.4,-8.2,yes,yes,yes,300234062782480,ICEB,AWI-USIABP,unknown,North
2015-09-16T19:00:28Z,1442430029,2015,19,1,259.792,259.792,89.721,-102.9718,1006.0,0.4,-7.4,yes,yes,yes,300234062782480,ICEB,AWI-USIABP,unknown,North
2015-09-16T20:00:57Z,1442433658,2015,20,1,259.834,259.834,89.7192,-103.5734,1005.7,0.4,-6.3,yes,yes,yes,300234062782480,ICEB,AWI-USIABP,unknown,North
2015-09-16T21:01:26Z,1442437286,2015,21,1,259.876,259.876,89.7176,-104.1146,1005.4,0.4,-5.1,yes,yes,yes,300234062782480,ICEB,AWI-USIABP,unknown,North
2015-09-16T22:00:28Z,1442440829,2015,22,1,259.917,259.917,89.7168,-104.633,1005.2,0.4,-4.4,yes,yes,yes,300234062782480,ICEB,AWI-USIABP,unknown,North
2015-09-16T23:00:57Z,1442444458,2015,23,1,259.959,259.959,89.7162,-105.1292,1005.1,0.4,-4.2,yes,yes,yes,300234062782480,ICEB,AWI-USIABP,unknown,North
2015-09-17T00:01:26Z,1442448086,2015,0,1,260.001,260.001,89.7158,-105.6174,1004.8,0.4,-3.4,yes,yes,yes,300234062782480,ICEB,AWI-USIABP,unknown,North
2015-09-17T01:00:28Z,1442451629,2015,1,1,260.042,260.042,89.7148,-106.0864,1004.3,0.4,-3.8,yes,yes,yes,300234062782480,ICEB,AWI-USIABP,unknown,North
2015-09-17T02:00:57Z,1442455258,2015,2,1,260.084,260.084,89.7136,-106.5302,1004.1,0.4,-4.4,yes,yes,yes,300234062782480,ICEB,AWI-USIABP,unknown,North
2015-09-17T03:01:26Z,1442458886,2015,3,1,260.126,260.126,89.7118,-106.9788,1004.2,0.4,-3.5,yes,yes,yes,300234062782480,ICEB,AWI-USIABP,unknown,North
2015-09-17T04:00:28Z,1442462429,2015,4,1,260.167,260.167,89.7096,-107.5268,1004.0,0.4,-3.1,yes,yes,yes,300234062782480,ICEB,AWI-USIABP,unknown,North
2015-09-17T05:00:57Z,1442466058,2015,5,1,260.209,260.209,89.707,-108.1246,1003.7,0.4,-3.9,yes,yes,yes,300234062782480,ICEB,AWI-USIABP,unknown,North
2015-09-17T06:01:26Z,1442469686,2015,6,1,260.251,260.251,89.7046,-108.7342,1003.5,0.4,-4.0,yes,yes,yes,300234062782480,ICEB,AWI-USIABP,unknown,North
2015-09-17T07:00:28Z,1442473229,2015,7,1,260.292,260.292,89.7022,-109.3484,1003.3,0.4,-4.0,yes,yes,yes,300234062782480,ICEB,AWI-USIABP,unknown,North
2015-09-17T08:00:57Z,1442476858,2015,8,1,260.334,260.334,89.7006,-109.8958,1003.1,0.4,-4.3,yes,yes,yes,300234062782480,ICEB,AWI-USIABP,unknown,North
2015-09-17T09:01:26Z,1442480486,2015,9,1,260.376,260.376,89.6996,-110.3226,1003.1,0.4,-4.2,yes,yes,yes,300234062782480,ICEB,AWI-USIABP,unknown,North